This is the latest recevied weather packets stored in our database for station/object KD0ISH. If no packets are shown the sender has not sent any weather packets the latest 10 day(s).
| Time | Temp. | Humidity | Pressure | Rain* | Wind** | Luminosity | Snow |
|---|---|---|---|---|---|---|---|
| 1778199194 | 18.33° C | 53% | 1014.3 hPa | 0 mm | - | 20 W/m² | - |
| 1778198890 | 18.33° C | 52% | 1014.3 hPa | 0 mm | - | 22 W/m² | - |
| 1778198586 | 18.33° C | 53% | 1014.1 hPa | 0 mm | - | 24 W/m² | - |
| 1778198283 | 18.33° C | 52% | 1014.1 hPa | 0 mm | - | 26 W/m² | - |
| 1778197981 | 18.89° C | 52% | 1014.1 hPa | 0 mm | - | 30 W/m² | - |
| 1778197677 | 18.89° C | 52% | 1014.1 hPa | 0 mm | - | 33 W/m² | - |
| 1778197374 | 18.89° C | 50% | 1014.1 hPa | 0 mm | - | 39 W/m² | - |
| 1778197070 | 18.89° C | 52% | 1014.1 hPa | 0 mm | - | 37 W/m² | - |
| 1778196768 | 18.89° C | 50% | 1014.1 hPa | 0 mm | - | 53 W/m² | - |
| 1778196466 | 19.44° C | 49% | 1014.3 hPa | 0 mm | - | 141 W/m² | - |
| 1778196162 | 19.44° C | 51% | 1014.4 hPa | 0 mm | - | 166 W/m² | - |
| 1778195859 | 19.44° C | 50% | 1014.1 hPa | 0 mm | - | 169 W/m² | - |
| 1778195556 | 19.44° C | 49% | 1014.4 hPa | 0 mm | - | 178 W/m² | - |
| 1778195252 | 19.44° C | 50% | 1014.5 hPa | 0 mm | - | 181 W/m² | - |
| 1778194950 | 19.44° C | 49% | 1014.6 hPa | 0 mm | - | 208 W/m² | - |
| 1778194649 | 19.44° C | 50% | 1014.7 hPa | 0 mm | - | 227 W/m² | - |
| 1778194346 | 19.44° C | 49% | 1014.9 hPa | 0 mm | - | 234 W/m² | - |
| 1778194042 | 19.44° C | 50% | 1014.7 hPa | 0 mm | - | 253 W/m² | - |
| 1778193739 | 19.44° C | 51% | 1014.7 hPa | 0 mm | - | 274 W/m² | - |
| 1778193435 | 19.44° C | 51% | 1015 hPa | 0 mm | - | 279 W/m² | - |
| 1778193132 | 20° C | 50% | 1015 hPa | 0 mm | - | 306 W/m² | - |
| 1778192828 | 20° C | 50% | 1014.9 hPa | 0 mm | - | 315 W/m² | - |
| 1778192525 | 19.44° C | 49% | 1015.1 hPa | 0 mm | - | 325 W/m² | - |
| 1778192222 | 20° C | 50% | 1015.1 hPa | 0 mm | - | 340 W/m² | - |
| 1778191918 | 19.44° C | 50% | 1015.1 hPa | 0 mm | - | 359 W/m² | - |
* Rain latest hour (hover to see other rain measurements)
** Current wind speed in m/s (hover to see current wind gust speed)